Regional Weather Roundup
Issued by NWS

Home | Current Version | Previous Version | Text Only | Print | Product List | Glossary Off
Versions: 1 2 3 4 5 6 7 8 9 10 11 12 13 14 15 16 17 18 19 20 21 22 23 24 25 26 27 28 29 30 31 32 33 34 35 36 37 38 39 40 41 42 43 44 45 46 47 48 49 50

000
ASUS43 KFSD 200102
RWRSD

WEATHER ROUNDUP FOR SOUTH DAKOTA
NATIONAL WEATHER SERVICE SIOUX FALLS SD
700 PM CST SUN FEB 19 2017

NOTE: "FAIR" INDICATES FEW OR NO CLOUDS BELOW 12,000 FEET WITH NO
SIGNIFICANT WEATHER AND/OR OBSTRUCTIONS TO VISIBILITY.


SDZ001>005-009-010-012>017-200200-
NORTHWEST AND NORTH CENTRAL SOUTH DAKOTA

CITY           SKY/WX    TMP DP  RH WIND       PRES   REMARKS
BUFFALO          N/A     57  35  43 S8        29.41R
FAITH            N/A     56  37  49 S14       29.49R
MOBRIDGE       CLOUDY    43  35  73 SE13      29.48R
$$

SDZ012>016-024>037-041>051-057-063-072>074-200200-
SOUTHWEST AND SOUTH CENTRAL SOUTH DAKOTA

CITY           SKY/WX    TMP DP  RH WIND       PRES   REMARKS
RAPID CTY ARPT CLOUDY    56  33  42 S13       29.52R
PIERRE         CLOUDY    58  38  47 SE9       29.52R
CUSTER         LGT RAIN  47  32  56 W15G24    29.64R
ELLSWORTH AFB  CLOUDY    56  34  43 S10       29.51R
PHILIP         CLOUDY    56  36  47 S8        29.52R
PINE RIDGE     CLOUDY    53  35  50 S12       29.57S
SPEARFISH      FAIR      59  30  33 S12G18    29.52R
WINNER         FAIR      62  42  47 S8        29.59R
$$

SDZ004>011-016>023-039-040-200200-
NORTHEAST SOUTH DAKOTA

CITY           SKY/WX    TMP DP  RH WIND       PRES   REMARKS
ABERDEEN       PTCLDY    51  46  83 S14       29.57R
WATERTOWN      CLOUDY    51  47  86 S16       29.64R
BROOKINGS      CLOUDY    55  49  80 S20       29.68R
SISSETON         N/A     50  47  89 SE7       29.64R
$$

SDZ017-020-022-023-036>040-048>070-200200-
SOUTHEAST SOUTH DAKOTA

CITY           SKY/WX    TMP DP  RH WIND       PRES   REMARKS
SIOUX FALLS    CLOUDY    58  50  75 SE20      29.70S
HURON          CLOUDY    57  50  77 S13       29.60R
CHAMBERLAIN    CLOUDY    59  46  63 S12       29.59R
MITCHELL       CLOUDY    60  51  72 S20       29.62R
YANKTON        CLOUDY    61  48  63 SE13      29.67S
$$

ABBREVIATIONS USED IN REMARKS
   TC - TEMPERATURE IN CELSIUS
  WCI - WIND CHILL INDEX
   HX - HEAT INDEX
  VSB - VISIBILITY





USA.gov is the U.S. government's official web portal to all federal, state and local government web resources and services.